TimeEST,TemperatureF,Dew PointF,Humidity,Sea Level PressureIn,VisibilityMPH,Wind Direction,Wind SpeedMPH,Gust SpeedMPH,PrecipitationIn,Events,Conditions,WindDirDegrees,DateUTC
12:12 AM,55.4,55.4,100,29.80,1.0,ENE,23.0,35.7,0.30,Rain,Heavy Rain,60,2013-02-08 05:12:00
12:35 AM,57.2,57.2,100,29.81,2.5,East,15.0,33.4,0.47,Rain,Heavy Rain,100,2013-02-08 05:35:00
12:50 AM,59.0,57.2,94,29.80,2.5,East,12.7,23.0,0.53,Rain,Heavy Rain,80,2013-02-08 05:50:00
12:58 AM,60.1,57.9,93,29.79,1.5,East,11.5,24.2,0.70,Rain,Heavy Rain,80,2013-02-08 05:58:00
1:16 AM,59.0,57.2,94,29.74,1.0,NE,11.5,-,0.39,Rain,Heavy Rain,40,2013-02-08 06:16:00
1:58 AM,60.1,59.0,96,29.70,2.5,Variable,4.6,-,0.74,Rain,Heavy Rain,0,2013-02-08 06:58:00
2:31 AM,60.8,60.8,100,29.67,2.0,ESE,17.3,23.0,0.22,Rain,Heavy Rain,120,2013-02-08 07:31:00
2:58 AM,62.1,61.0,96,29.63,2.0,ESE,12.7,23.0,0.39,Rain,Rain,120,2013-02-08 07:58:00
3:13 AM,62.6,62.6,100,29.62,2.5,East,6.9,16.1,0.07,Rain,Heavy Rain,90,2013-02-08 08:13:00
3:23 AM,62.6,62.6,100,29.59,3.0,East,6.9,-,0.11,Rain,Heavy Rain,90,2013-02-08 08:23:00
3:36 AM,62.6,62.6,100,29.56,4.0,ESE,9.2,-,0.14,Rain,Rain,110,2013-02-08 08:36:00
3:48 AM,62.6,60.8,94,29.56,5.0,ESE,8.1,-,0.16,Rain,Rain,110,2013-02-08 08:48:00
3:58 AM,62.1,61.0,96,29.56,5.0,SE,6.9,-,0.17,Rain,Light Rain,140,2013-02-08 08:58:00
4:05 AM,62.6,60.8,94,29.53,6.0,ESE,8.1,-,0.00,Rain,Light Rain,110,2013-02-08 09:05:00
4:56 AM,60.8,60.8,100,29.49,7.0,SSE,8.1,-,0.01,,Overcast,150,2013-02-08 09:56:00
4:58 AM,61.0,60.1,97,29.49,7.0,SSE,9.2,-,0.01,,Overcast,150,2013-02-08 09:58:00
5:05 AM,62.6,60.8,94,29.48,6.0,SSE,11.5,-,N/A,,Overcast,160,2013-02-08 10:05:00
5:15 AM,62.6,60.8,94,29.48,6.0,South,12.7,-,N/A,,Overcast,170,2013-02-08 10:15:00
5:26 AM,62.6,60.8,94,29.47,6.0,South,17.3,-,N/A,,Overcast,190,2013-02-08 10:26:00
5:45 AM,60.8,59.0,94,29.47,7.0,SSW,19.6,25.3,N/A,,Overcast,210,2013-02-08 10:45:00
5:47 AM,60.8,59.0,94,29.46,7.0,SSW,18.4,25.3,N/A,,Overcast,210,2013-02-08 10:47:00
5:58 AM,59.0,57.9,96,29.46,6.0,SW,16.1,25.3,N/A,,Overcast,230,2013-02-08 10:58:00
6:09 AM,59.0,57.2,94,29.46,6.0,WSW,10.4,-,N/A,,Mostly Cloudy,240,2013-02-08 11:09:00
6:36 AM,55.4,53.6,94,29.49,10.0,WNW,23.0,31.1,N/A,,Overcast,300,2013-02-08 11:36:00
6:58 AM,52.0,50.0,93,29.54,10.0,WNW,28.8,34.5,N/A,,Overcast,300,2013-02-08 11:58:00
7:41 AM,48.2,46.4,93,29.59,8.0,NW,24.2,34.5,0.00,,Overcast,310,2013-02-08 12:41:00
7:58 AM,48.9,46.0,90,29.60,5.0,NW,25.3,36.8,0.00,,Overcast,310,2013-02-08 12:58:00
8:58 AM,48.9,45.0,86,29.66,10.0,NW,24.2,33.4,N/A,,Overcast,310,2013-02-08 13:58:00
9:32 AM,48.2,44.6,87,29.68,10.0,NNW,25.3,34.5,N/A,,Overcast,330,2013-02-08 14:32:00
9:58 AM,50.0,46.0,86,29.70,10.0,NNW,21.9,29.9,N/A,,Overcast,330,2013-02-08 14:58:00
10:58 AM,55.0,48.0,77,29.74,10.0,NW,19.6,-,N/A,,Scattered Clouds,320,2013-02-08 15:58:00
11:58 AM,57.0,48.0,72,29.76,10.0,WNW,18.4,-,N/A,,Scattered Clouds,300,2013-02-08 16:58:00
12:58 PM,53.1,46.9,80,29.78,10.0,WNW,21.9,-,N/A,,Overcast,300,2013-02-08 17:58:00
1:58 PM,52.0,46.0,80,29.78,10.0,WNW,19.6,-,N/A,,Mostly Cloudy,300,2013-02-08 18:58:00
2:58 PM,53.1,46.0,77,29.81,10.0,WNW,18.4,-,N/A,,Mostly Cloudy,300,2013-02-08 19:58:00
3:22 PM,53.6,44.6,72,29.81,10.0,WNW,15.0,-,N/A,,Scattered Clouds,290,2013-02-08 20:22:00
3:58 PM,53.1,45.0,74,29.81,10.0,WNW,12.7,-,N/A,,Clear,290,2013-02-08 20:58:00
4:58 PM,53.1,44.1,71,29.82,10.0,West,10.4,-,N/A,,Clear,270,2013-02-08 21:58:00
5:58 PM,52.0,44.1,74,29.85,10.0,West,11.5,-,N/A,,Clear,270,2013-02-08 22:58:00
6:58 PM,51.1,44.1,77,29.88,10.0,WSW,9.2,-,N/A,,Scattered Clouds,250,2013-02-08 23:58:00
7:58 PM,52.0,45.0,77,29.89,10.0,West,9.2,-,N/A,,Mostly Cloudy,260,2013-02-09 00:58:00
8:58 PM,52.0,46.0,80,29.91,10.0,West,9.2,-,N/A,,Clear,260,2013-02-09 01:58:00
9:58 PM,52.0,45.0,77,29.92,10.0,West,13.8,-,N/A,,Clear,280,2013-02-09 02:58:00
10:58 PM,51.1,44.1,77,29.94,10.0,WNW,19.6,-,N/A,,Clear,300,2013-02-09 03:58:00
11:58 PM,48.9,39.9,71,29.98,10.0,NNW,19.6,25.3,N/A,,Clear,330,2013-02-09 04:58:00